This is the latest recevied weather packets stored in our database for station/object W4TTU-1. If no packets are shown the sender has not sent any weather packets the latest 10 day(s).
| Time | Temp. | Humidity | Pressure | Rain* | Wind** | Luminosity | Snow |
|---|---|---|---|---|---|---|---|
| 1777685411 | 33.33° C | 24% | 848 hPa | 0 mm | - | - | - |
| 1777684510 | 33.89° C | 24% | 847.9 hPa | 0 mm | - | - | - |
| 1777683610 | 35° C | 24% | 848 hPa | 0 mm | - | - | - |
| 1777682710 | 35.56° C | 24% | 848 hPa | 0 mm | - | - | - |
| 1777681809 | 36.11° C | 24% | 848 hPa | 0 mm | - | - | - |
| 1777680909 | 36.11° C | 24% | 848 hPa | 0 mm | - | - | - |
| 1777680008 | 36.67° C | 24% | 848 hPa | 0 mm | - | - | - |
| 1777679110 | 36.67° C | 24% | 848.1 hPa | 0 mm | - | - | - |
| 1777677306 | 37.22° C | 24% | 848.1 hPa | 0 mm | - | - | - |
| 1777676406 | 37.22° C | 24% | 848.1 hPa | 0 mm | - | - | - |
| 1777675505 | 37.22° C | 25% | 848.2 hPa | 0 mm | - | - | - |
| 1777674606 | 36.67° C | 25% | 848.3 hPa | 0 mm | - | - | - |
| 1777673704 | 36.67° C | 26% | 848.4 hPa | 0 mm | - | - | - |
| 1777672804 | 36.11° C | 26% | 848.6 hPa | 0 mm | - | - | - |
| 1777671903 | 36.11° C | 27% | 848.6 hPa | 0 mm | - | - | - |
| 1777671003 | 35.56° C | 27% | 848.7 hPa | 0 mm | - | - | - |
| 1777670103 | 35° C | 27% | 848.9 hPa | 0 mm | - | - | - |
| 1777669202 | 34.44° C | 28% | 849 hPa | 0 mm | - | - | - |
| 1777668303 | 33.89° C | 28% | 849.1 hPa | 0 mm | - | - | - |
| 1777667401 | 32.78° C | 29% | 849.1 hPa | 0 mm | - | - | - |
| 1777666500 | 32.22° C | 29% | 849.1 hPa | 0 mm | - | - | - |
| 1777665600 | 31.11° C | 29% | 849.3 hPa | 0 mm | - | - | - |
| 1777664702 | 30.56° C | 31% | 849.3 hPa | 0 mm | - | - | - |
| 1777663799 | 30° C | 31% | 849.4 hPa | 0 mm | - | - | - |
| 1777662898 | 28.89° C | 32% | 849.5 hPa | 0 mm | - | - | - |
* Rain since midnight (hover to see other rain measurements)
** Current wind speed in m/s (hover to see current wind gust speed)